Regional Weather Roundup
Issued by NWS

Home | Current Version | Previous Version | Graphics & Text | Print | Product List | Glossary On
Versions: 1 2 3 4 5 6 7 8 9 10 11 12 13 14 15 16 17 18 19 20 21 22 23 24 25 26 27 28 29 30 31 32 33 34 35 36 37 38 39 40 41 42 43 44 45 46 47 48 49 50
000
ASUS43 KDMX 291908
RWRIA

WEATHER ROUNDUP FOR IOWA
NATIONAL WEATHER SERVICE DES MOINES IA
200 PM CDT SUN MAY 29 2016

NOTE: "FAIR" INDICATES FEW OR NO CLOUDS BELOW 12,000 FEET WITH NO
SIGNIFICANT WEATHER AND/OR OBSTRUCTIONS TO VISIBILITY.

* - THESE STATIONS ARE NOT NWS STATIONS...THUS NOT UNDER NWS
QUALITY CONTROL.  THEY ALSO DO NOT REPORT WEATHER SUCH
AS PRECIPITATION OR FOG.

IAZ001>003-012>014-020>022-031>034-043>046-292000-
   NORTHWEST IOWA

CITY           SKY/WX    TMP DP  RH WIND       PRES   REMARKS
CARROLL *      SUNNY     81  55  41 W7G15     30.06F HX  80
CHEROKEE *     MOSUNNY   77  61  57 W13G18    30.05F
DENISON *      SUNNY     79  54  41 W8G16     30.05F
LE MARS *      MOSUNNY   79  59  50 W10G17    30.06S HX  80
ORANGE CITY *  MOSUNNY   75  63  64 W14G20    30.06S
SHELDON *      MOSUNNY   75  61  60 W13G21    30.04S
SIOUX CITY     SUNNY     80  58  46 W9        30.05F HX  80
SPENCER        MOSUNNY   77  58  51 W18G26    30.04F
$$

IAZ055>058-069>071-079>083-090>094-292000-
   SOUTHWEST IOWA

CITY           SKY/WX    TMP DP  RH WIND       PRES   REMARKS
ATLANTIC *     SUNNY     79  57  47 SW6G13    30.07F HX  80
AUDUBON *        N/A     79  54  41 W7        30.08F
CLARINDA *       N/A     81  63  54 MISG      30.08F HX  82
COUNCIL BLFS * SUNNY     79  59  50 VRB5G13   30.07F HX  80
CRESTON *      SUNNY     79  55  44 VRB5      30.10F
HARLAN  *      SUNNY     79  55  44 SW8       30.10F
LAMONI         MOSUNNY   79  63  57 SW8       30.09F HX  80
RED OAK *      SUNNY     79  63  57 CALM      30.07F HX  80
SHENANDOAH *   SUNNY     81  63  54 SW7       30.07F HX  82
$$

IAZ047>049-059>061-072>074-084-292000-
   CENTRAL IOWA

CITY           SKY/WX    TMP DP  RH WIND       PRES   REMARKS
AMES           SUNNY     78  60  53 W14       30.06F
ANKENY *       SUNNY     79  59  50 W7G14     30.06F HX  80
BOONE *        SUNNY     79  57  47 W9G17     30.06F HX  80
CHARITON *     SUNNY     79  55  44 W8G14     30.08S
DES MOINES     MOSUNNY   80  54  40 W6        30.06F HX  80
KNOXVILLE *    SUNNY     77  57  50 VRB7G14   30.06F
MARSHALLTOWN   SUNNY     77  60  55 W13       30.05F
NEWTON *       SUNNY     79  61  53 W10       30.06F HX  80
PELLA *        SUNNY     77  59  53 W9G18     30.08F
PERRY *          N/A     79  55  44 W8        30.06F
$$

IAZ004>006-015-016-023>025-035-036-292000-
   NORTH CENTRAL IOWA

CITY           SKY/WX    TMP DP  RH WIND       PRES   REMARKS
ALGONA *       MOSUNNY   77  61  57 W17G24    30.05S
CLARION *      PTSUNNY   79  59  50 W18       30.04F HX  80
ESTHERVILLE    PTSUNNY   75  62  64 W22G30    30.03F
FORT DODGE *   PTSUNNY   79  55  44 W7        30.05F
MASON CITY     MOSUNNY   76  60  57 W18G25    30.04F
FOREST CITY *  PTSUNNY   73  61  64 W13G21    30.03S
WEBSTER CITY * MOSUNNY   81  59  47 SW12G17   30.03F HX  81
IOWA FALLS *   PTSUNNY   79  61  53 W16       30.07S HX  80
$$

IAZ007>011-017>019-026>030-037>042-050>054-066-292000-
   NORTHEAST IOWA

CITY           SKY/WX    TMP DP  RH WIND       PRES   REMARKS
CEDAR RAPIDS   MOSUNNY   77  61  57 W14G21    30.04F
CHARLES CITY * PTSUNNY   75  61  60 W16G25    30.03S
CLINTON *      PTSUNNY   78  61  55 W20       30.04F HX  80
DECORAH *      PTSUNNY   73  59  60 W8G16     30.00F
DUBUQUE        MOSUNNY   76  60  57 W17       30.04S
OELWEIN *      PTSUNNY   75  59  57 W15G24    30.04S
WATERLOO       MOSUNNY   79  58  48 W17       30.03S HX  80
$$

IAZ064-065-067-068-078-292000-
   EAST CENTRAL IOWA

CITY           SKY/WX    TMP DP  RH WIND       PRES   REMARKS
DAVENPORT      MOSUNNY   78  58  49 W20G26    30.05F
IOWA CITY      MOSUNNY   79  58  48 W9        30.06F HX  80
MT. PLEASANT * SUNNY     81  61  50 W9        30.07F HX  81
MUSCATINE *    MOSUNNY   81  59  47 W9G18     30.05F HX  81
QUAD CITIES    MOSUNNY   80  58  46 W13G21    30.04S HX  80
$$

IAZ062-063-075>077-085>089-095>099-292000-
   SOUTHEAST IOWA

CITY           SKY/WX    TMP DP  RH WIND       PRES   REMARKS
BURLINGTON     MOSUNNY   79  59  50 W10G18    30.07S HX  80
FAIRFIELD *      N/A    N/A N/A N/A MISG        N/A
FORT MADISON * SUNNY     81  57  44 W8        30.08F HX  81
KEOKUK *       SUNNY     81  57  44 NW9       30.07S HX  81
OSKALOOSA *      N/A     81  54  39 W14       30.07F HX  80
OTTUMWA        SUNNY     79  59  50 W10       30.07F HX  80
WASHINGTON *   MOSUNNY   79 -33   1 W14       30.07F
$$

ABBREVIATIONS USED IN REMARKS
   TC - TEMPERATURES IN CELSIUS
  WCI - WIND CHILL INDEX
   HX - HEAT INDEX
  VSB - VISIBILITY
$$





USA.gov is the U.S. government's official web portal to all federal, state and local government web resources and services.